Dansville, NY

12:26 PM EST on February 07, 2016 (GMT -0500)
Dansville Municipal

Weather History for KDSV - May, 2012

Change the Weather History Date:

Tuesday, May 8, 2012

  Actual Average (KROC) Record (KROC)
Temperature  
Mean Temperature 64 °F 54 °F  
Max Temperature 70 °F 65 °F 89 °F (1979)
Min Temperature 59 °F 44 °F 29 °F (1974)
Degree Days  
Heating Degree Days 1 11  
Month to date heating degree days 97  
Since 1 July heating degree days 6400  
Cooling Degree Days 0 0  
Month to date cooling degree days 0  
Year to date cooling degree days 4  
Growing Degree Days 14 (Base 50)    
Moisture  
Dew Point 57 °F    
Average Humidity 82    
Maximum Humidity 94    
Minimum Humidity 65    
Precipitation  
Precipitation 0.21 in 0.09 in 0.90 in (1971)
Month to date precipitation 0.72  
Year to date precipitation 10.31  
Snow  
Snow 0.00 in 0.00 in 0.50 in (1977)
Month to date snowfall 0.2  
Since 1 July snowfall 99.3  
Snow Depth -    
Sea Level Pressure  
Sea Level Pressure 29.78 in    
Wind  
Wind Speed 7 mph (East)    
Max Wind Speed 12 mph    
Max Gust Speed -    
Visibility 9 miles    
Events Rain    
T = Trace of Precipitation, MM = Missing Value Source: NWS Daily Summary

Daily Weather History Graph

Daily Weather History Graph

Search for Another Location

Airport or City:

Trip Planner

Search our weather history database for the weather conditions in past years. The results will help you decide how hot, cold, wet, or windy it might be!

Date:

Astronomy

May. 08, 2012 Rise Set
Actual Time 5:56 AM EDT 8:19 PM EDT
Civil Twilight 5:24 AM EDT 8:50 PM EDT
Nautical Twilight 4:45 AM EDT 9:30 PM EDT
Astronomical Twilight 4:01 AM EDT 10:14 PM EDT
Moon 11:29 PM EDT (5/8) 7:59 AM EDT (5/8)
Length of Visible Light 15h 26m
Length of Day
14h 23m
Waning Gibbous, 91% of the Moon is Illuminated
May 8
Waning Gibbous
May 12
Last Quarter
May 20
New
May 28
First Quarter
Jun 4
Full

Hourly Weather History & Observations

Time (EDT) Temp. Dew Point Humidity Pressure Visibility Wind Dir Wind Speed Gust Speed Precip Events Conditions
12:54 AM 60.1 °F 55.0 °F 83% 29.83 in 10.0 mi East 9.2 mph - N/A   Overcast
1:24 AM 60.8 °F 55.4 °F 82% 29.80 in 10.0 mi SE 8.1 mph - N/A   Overcast
1:54 AM 60.1 °F 55.0 °F 83% 29.82 in 10.0 mi ESE 6.9 mph - 0.00 in Rain Light Rain
2:35 AM 60.8 °F 55.4 °F 82% 29.78 in 10.0 mi SE 11.5 mph - 0.01 in Rain Light Rain
2:54 AM 60.1 °F 55.9 °F 86% 29.79 in 10.0 mi ESE 8.1 mph - 0.01 in Rain Light Rain
3:54 AM 61.0 °F 55.9 °F 83% 29.79 in 10.0 mi SE 9.2 mph - 0.00 in Rain Light Rain
4:54 AM 59.0 °F 55.9 °F 90% 29.78 in 10.0 mi ESE 9.2 mph - 0.01 in Rain Light Rain
5:54 AM 60.1 °F 55.0 °F 83% 29.79 in 10.0 mi ESE 8.1 mph - 0.02 in Rain Light Rain
6:54 AM 59.0 °F 55.0 °F 87% 29.79 in 10.0 mi ESE 8.1 mph - 0.01 in Rain Light Rain
7:54 AM 60.1 °F 55.0 °F 83% 29.78 in 10.0 mi ESE 6.9 mph - 0.01 in   Overcast
8:54 AM 60.1 °F 55.9 °F 86% 29.78 in 10.0 mi ESE 5.8 mph - 0.01 in Rain Light Rain
9:54 AM 61.0 °F 57.0 °F 87% 29.78 in 6.0 mi SE 8.1 mph - 0.04 in Rain Light Rain
10:54 AM 62.1 °F 57.9 °F 86% 29.78 in 7.0 mi SSE 6.9 mph - 0.03 in Rain Light Rain
11:54 AM 63.0 °F 57.9 °F 84% 29.77 in 10.0 mi ESE 4.6 mph - 0.02 in   Overcast
12:51 PM 64.4 °F 60.8 °F 88% 29.76 in 1.5 mi NW 3.5 mph - 0.04 in Rain Rain
12:54 PM 63.0 °F 60.1 °F 90% 29.78 in 1.2 mi Calm Calm - 0.05 in Rain Heavy Rain
1:04 PM 62.6 °F 60.8 °F 94% 29.76 in 3.0 mi Calm Calm - 0.00 in Rain Light Rain
1:54 PM 64.9 °F 61.0 °F 87% 29.77 in 10.0 mi SE 6.9 mph - 0.00 in   Overcast
2:54 PM 68.0 °F 61.0 °F 78% 29.76 in 10.0 mi Calm Calm - N/A   Overcast
3:43 PM 69.8 °F 60.8 °F 73% 29.73 in 10.0 mi NNW 5.8 mph - N/A   Overcast
3:54 PM 69.1 °F 61.0 °F 75% 29.75 in 10.0 mi NNW 4.6 mph - N/A   Overcast
4:54 PM 69.1 °F 57.0 °F 65% 29.75 in 10.0 mi WNW 6.9 mph - N/A   Overcast
5:54 PM 69.1 °F 57.0 °F 65% 29.75 in 10.0 mi WNW 5.8 mph - N/A   Overcast
6:54 PM 68.0 °F 59.0 °F 73% 29.76 in 10.0 mi NNW 6.9 mph - N/A   Overcast
7:54 PM 66.0 °F 59.0 °F 78% 29.77 in 10.0 mi NNW 4.6 mph - N/A   Overcast
8:54 PM 64.0 °F 55.9 °F 75% 29.79 in 10.0 mi NNW 6.9 mph - N/A   Overcast
9:54 PM 62.1 °F 57.0 °F 84% 29.81 in 10.0 mi NW 3.5 mph - N/A   Overcast
10:54 PM 61.0 °F 55.9 °F 83% 29.82 in 10.0 mi Calm Calm - N/A   Overcast
11:54 PM 60.1 °F 55.0 °F 83% 29.82 in 10.0 mi Calm Calm - N/A   Scattered Clouds